Weather History for WLGAV - May, 2013

Change the Weather History Date:

Tuesday, May 21, 2013

  Actual Average Record
Temperature  
Mean Temperature 74 °F -  
Max Temperature 86 °F - - ()
Min Temperature 62 °F - - ()
Cooling Degree Days 9    
Growing Degree Days 24 (Base 50)    
Moisture  
Dew Point 54 °F    
Average Humidity 49    
Maximum Humidity 73    
Minimum Humidity 22    
Precipitation  
Precipitation 0.00 in - - ()
Sea Level Pressure  
Sea Level Pressure 29.92 in    
Wind  
Wind Speed 4 mph ()    
Max Wind Speed 13 mph    
Max Gust Speed -    
Visibility 3.1 miles    
Events      
T = Trace of Precipitation, MM = Missing Value Source: Averaged Metar Reports

Daily Weather History Graph

Daily Weather History Graph

Search for Another Location

Airport or City:

Trip Planner

Search our weather history database for the weather conditions in past years. The results will help you decide how hot, cold, wet, or windy it might be!

Date:

Astronomy

May. 21, 2013 Rise Set
Actual Time 6:09 AM EEST 8:32 PM EEST
Civil Twilight 5:39 AM EEST 9:02 PM EEST
Nautical Twilight 5:02 AM EEST 9:39 PM EEST
Astronomical Twilight 4:21 AM EEST 10:20 PM EEST
Moon 4:28 PM EEST (5/21) 3:22 AM EEST (5/21)
Length of Visible Light 15h 23m
Length of Day
14h 23m
Waxing Gibbous, 81% of the Moon is Illuminated
May 21
Waxing Gibbous
May 25
Full
May 31
Last Quarter
Jun 8
New
Jun 16
First Quarter

Hourly Weather History & Observations

Time (EEST) Temp. Heat Index Dew Point Humidity Pressure Visibility Wind Dir Wind Speed Gust Speed Precip Events Conditions
12:20 AM 66.2 °F - 57.2 °F 73% 29.95 in - West 3.5 mph - N/A   Clear
12:50 AM 68.0 °F - 57.2 °F 68% 29.95 in - Variable 2.3 mph - N/A   Clear
1:20 AM 66.2 °F - 57.2 °F 73% 29.92 in - Calm Calm - N/A   Clear
1:50 AM 71.6 °F - 57.2 °F 60% 29.92 in - Variable 2.3 mph - N/A   Clear
2:20 AM 73.4 °F - 55.4 °F 53% 29.92 in - Variable 2.3 mph - N/A   Clear
2:50 AM 66.2 °F - 55.4 °F 68% 29.92 in - Variable 2.3 mph - N/A   Clear
3:20 AM 69.8 °F - 57.2 °F 64% 29.92 in - Variable 2.3 mph - N/A   Clear
3:50 AM 69.8 °F - 55.4 °F 60% 29.92 in 3.1 mi North 4.6 mph - N/A   Clear
4:20 AM 69.8 °F - 53.6 °F 56% 29.92 in - NW 4.6 mph - N/A   Clear
4:50 AM 73.4 °F - 53.6 °F 50% 29.92 in - North 4.6 mph - N/A   Clear
5:20 AM 66.2 °F - 53.6 °F 64% 29.92 in - Variable 3.5 mph - N/A   Clear
5:50 AM 64.4 °F - 55.4 °F 73% 29.92 in - WSW 1.2 mph - N/A   Clear
6:20 AM 64.4 °F - 55.4 °F 73% 29.92 in - East 1.2 mph - N/A   Clear
6:50 AM 62.6 °F - 53.6 °F 72% 29.92 in - Variable 2.3 mph - N/A   Clear
7:20 AM 64.4 °F - 55.4 °F 73% 29.92 in - Variable 2.3 mph - N/A   Clear
7:50 AM 69.8 °F - 57.2 °F 64% 29.95 in - Variable 1.2 mph - N/A   Clear
8:20 AM 73.4 °F - 59.0 °F 61% 29.95 in - Variable 1.2 mph - N/A   Clear
8:50 AM 75.2 °F - 59.0 °F 57% 29.95 in - Variable 3.5 mph - N/A   Clear
9:50 AM 78.8 °F - 59.0 °F 51% 29.95 in - Variable 3.5 mph - N/A   Clear
10:20 AM 80.6 °F 81.1 °F 59.0 °F 48% 29.95 in - ESE 4.6 mph - N/A   Clear
10:50 AM 82.4 °F 82.0 °F 57.2 °F 42% 29.95 in - East 5.8 mph - N/A   Clear
11:20 AM 86.0 °F - 51.8 °F 31% 29.95 in - ESE 8.1 mph - N/A   Clear
11:50 AM 84.2 °F - 51.8 °F 33% 29.95 in - ENE 9.2 mph - N/A   Clear
12:20 PM 86.0 °F - 48.2 °F 27% 29.95 in - ENE 10.4 mph - N/A   Clear
12:50 PM 86.0 °F - 46.4 °F 25% 29.95 in - East 10.4 mph - N/A   Clear
1:20 PM 86.0 °F - 42.8 °F 22% 29.95 in - ENE 11.5 mph - N/A   Clear
1:50 PM 86.0 °F - 50.0 °F 29% 29.95 in - ENE 12.7 mph - N/A   Clear
2:20 PM 86.0 °F - 51.8 °F 31% 29.92 in - East 11.5 mph - N/A   Clear
2:50 PM 86.0 °F - 50.0 °F 29% 29.92 in - ENE 10.4 mph - N/A   Clear
3:20 PM 86.0 °F - 51.8 °F 31% 29.92 in - ENE 9.2 mph - N/A   Clear
3:50 PM 86.0 °F - 51.8 °F 31% 29.92 in - East 6.9 mph - N/A   Clear
4:20 PM 86.0 °F - 50.0 °F 29% 29.92 in - East 5.8 mph - N/A   Clear
4:50 PM 86.0 °F - 51.8 °F 31% 29.89 in - East 6.9 mph - N/A   Clear
5:20 PM 84.2 °F - 51.8 °F 33% 29.89 in - East 8.1 mph - N/A   Clear
5:50 PM 84.2 °F - 51.8 °F 33% 29.89 in - East 10.4 mph - N/A   Clear
6:20 PM 82.4 °F - 51.8 °F 35% 29.89 in - East 8.1 mph - N/A   Clear
6:50 PM 80.6 °F 80.3 °F 53.6 °F 39% 29.89 in - ESE 5.8 mph - N/A   Clear
7:20 PM 80.6 °F - 51.8 °F 37% 29.89 in - East 5.8 mph - N/A   Clear
7:50 PM 78.8 °F - 53.6 °F 42% 29.89 in - ESE 4.6 mph - N/A   Clear
8:20 PM 75.2 °F - 57.2 °F 53% 29.92 in - North 4.6 mph - N/A   Clear
8:50 PM 75.2 °F - 57.2 °F 53% 29.89 in - Calm Calm - N/A   Clear
9:20 PM 73.4 °F - 55.4 °F 53% 29.92 in - Variable 1.2 mph - N/A   Clear
9:50 PM 73.4 °F - 55.4 °F 53% 29.92 in - Variable 1.2 mph - N/A   Clear
10:20 PM 71.6 °F - 55.4 °F 57% 29.92 in - Calm Calm - N/A   Clear
10:50 PM 68.0 °F - 57.2 °F 68% 29.92 in - Calm Calm - N/A   Clear
11:20 PM 69.8 °F - 55.4 °F 60% 29.92 in - Calm Calm - N/A   Clear
11:50 PM 71.6 °F - 53.6 °F 53% 29.92 in - Variable 2.3 mph - N/A   Clear